CW7313 Drosia of Attica GR current weather conditions

sailwx.info

Wind from 022

Air temperature 12.8° C
Dewpoint 7.0° C

Last reported at 2019-Dec-08 15:05 UTC.
Time now 2019-Dec-08 16:01 UTC

Location: N 38°07' E 023°55'.
View on Google Maps.

See reports from other nearby stations

  
Tides and Currents Weather Stations Pressure Air Temp Water Temp Dewpoint Dewpoint Depression Visibility Wind Speed Wind Dir Waves Ship Positions
date/time (UTC)wind fromknots sea level pressurealtimeterstation pressurevisibilityair tempwater tempwave heightnotes
2019-Dec-08 15:05 022 12.8
2019-Dec-08 14:35 355 13.3
2019-Dec-08 14:05 343 13.9
2019-Dec-08 13:36 351 14.4
2019-Dec-08 13:05 342 14.4
2019-Dec-08 12:35 334 15.0
2019-Dec-08 12:05 021 15.0
2019-Dec-08 11:35 322 14.4
2019-Dec-08 11:05 344 14.4
2019-Dec-08 10:35 011 14.4
2019-Dec-08 10:05 345 14.4
2019-Dec-08 09:35 350 14.4
2019-Dec-08 09:05 022 14.4
2019-Dec-08 08:35 036 13.3
2019-Dec-08 08:05 035 12.8
2019-Dec-08 07:35 033 12.8
2019-Dec-08 07:05 005 12.2
2019-Dec-08 06:35 010 11.1
2019-Dec-08 06:05 082 8.9
2019-Dec-08 05:35 082 8.3
2019-Dec-08 05:05 081 8.9
2019-Dec-08 04:35 082 9.4
2019-Dec-08 04:05 014 10.0
2019-Dec-08 03:35 360 10.6
2019-Dec-08 02:35 355 8.3
2019-Dec-08 02:05 355 8.3
2019-Dec-08 01:35 355 8.9
2019-Dec-08 01:05 355 8.9
2019-Dec-08 00:35 355 9.4
2019-Dec-08 00:05 355 8.9
2019-Dec-07 23:36 355 8.9
2019-Dec-07 23:05 355 8.9
2019-Dec-07 22:35 355 8.9
2019-Dec-07 22:05 355 9.4
2019-Dec-07 21:35 355 9.4
2019-Dec-07 21:05 355 8.9
2019-Dec-07 20:35 355 8.9
2019-Dec-07 20:06 355 9.4
2019-Dec-07 19:35 355 9.4
2019-Dec-07 19:05 355 9.4
2019-Dec-07 18:35 355 9.4
2019-Dec-07 18:05 355 10.0
2019-Dec-07 17:35 355 10.6
2019-Dec-07 17:06 355 11.1
2019-Dec-07 16:35 355 11.1
2019-Dec-07 16:05 355 11.7
2019-Dec-07 15:35 355 12.2
2019-Dec-07 15:05 355 13.9
2019-Dec-07 14:35 222 14.4
2019-Dec-07 14:05 217 14.4
2019-Dec-07 13:36 222 15.0
2019-Dec-07 13:05 223 15.6
2019-Dec-07 12:35 200 15.0
2019-Dec-07 12:05 310 15.6
2019-Dec-07 11:35 300 15.6
2019-Dec-07 11:05 201 15.0
2019-Dec-07 10:35 234 14.4
2019-Dec-07 10:05 258 13.9
2019-Dec-07 09:35 202 12.8
2019-Dec-07 09:05 229 12.8
2019-Dec-07 08:35 238 12.2
2019-Dec-07 08:05 233 12.2
2019-Dec-07 07:36 074 11.1
2019-Dec-07 07:05 074 10.0
2019-Dec-07 06:35 074 9.4
2019-Dec-07 06:05 074 8.3
2019-Dec-07 05:35 074 8.3
2019-Dec-07 05:05 074 8.3
2019-Dec-07 04:35 074 8.9
2019-Dec-07 04:06 074 8.3
2019-Dec-07 03:35 074 8.9
2019-Dec-07 03:05 074 8.9
2019-Dec-07 02:35 074 8.9
2019-Dec-07 02:05 074 8.9
2019-Dec-07 01:35 074 8.9
2019-Dec-07 01:06 074 8.9
2019-Dec-07 00:35 074 8.9
2019-Dec-07 00:05 074 8.9
2019-Dec-06 23:35 005 8.9
2019-Dec-06 23:05 005 8.9
2019-Dec-06 22:35 360 8.9
2019-Dec-06 22:05 005 8.3
2019-Dec-06 21:36 005 8.3
2019-Dec-06 21:05 005 7.8
2019-Dec-06 20:35 360 6.7
2019-Dec-06 20:05 360 6.1
2019-Dec-06 19:35 005 6.7
2019-Dec-06 19:05 005 6.7
2019-Dec-06 18:35 005 7.2
2019-Dec-06 18:05 005 7.2
2019-Dec-06 17:35 360 7.2
2019-Dec-06 17:05 360 7.8
2019-Dec-06 16:35 360 7.8
2019-Dec-06 16:05 360 8.3